Fresno, TX

11:42 AM CDT on August 30, 2016 (GMT -0500)
Houston-Southwest

Weather History for KAXH - May, 2014

Change the Weather History Date:

Tuesday, May 13, 2014

  Actual Average (KHOU) Record (KHOU)
Temperature  
Mean Temperature 70 °F 76 °F  
Max Temperature 75 °F 86 °F 94 °F (1907)
Min Temperature 64 °F 67 °F 50 °F (1895)
Cooling Degree Days 4 11  
Month to date cooling degree days 128  
Year to date cooling degree days 409  
Growing Degree Days 20 (Base 50)    
Moisture  
Dew Point 63 °F    
Average Humidity 83    
Maximum Humidity 99    
Minimum Humidity 70    
Precipitation  
Precipitation 2.92 in 0.16 in 3.44 in (2014)
Month to date precipitation 2.13  
Year to date precipitation 15.43  
Sea Level Pressure  
Sea Level Pressure 30.02 in    
Wind  
Wind Speed 10 mph (NNW)    
Max Wind Speed 21 mph    
Max Gust Speed 26 mph    
Visibility 8 miles    
Events Rain , Thunderstorm    
T = Trace of Precipitation, MM = Missing Value Source: NWS Daily Summary

Daily Weather History Graph

Daily Weather History Graph

Search for Another Location

Airport or City:

Trip Planner

Search our weather history database for the weather conditions in past years. The results will help you decide how hot, cold, wet, or windy it might be!

Date:

Astronomy

May. 13, 2014 Rise Set
Actual Time 6:30 AM CDT 8:06 PM CDT
Civil Twilight 6:04 AM CDT 8:32 PM CDT
Nautical Twilight 5:33 AM CDT 9:03 PM CDT
Astronomical Twilight 5:01 AM CDT 9:35 PM CDT
Moon 7:13 PM CDT (5/13) 5:40 AM CDT (5/13)
Length of Visible Light 14h 27m
Length of Day
13h 35m
Waxing Gibbous, 99% of the Moon is Illuminated
May 13
Waxing Gibbous
May 14
Full
May 21
Last Quarter
May 28
New
Jun 5
First Quarter

Hourly Weather History & Observations

Time (CDT) Temp. Dew Point Humidity Pressure Visibility Wind Dir Wind Speed Gust Speed Precip Events Conditions
12:15 AM 75.9 °F 70.9 °F 84% 29.93 in 7.0 mi SSE 4.6 mph - N/A   Overcast
12:35 AM 75.6 °F 70.3 °F 84% 29.93 in 7.0 mi SSE 9.2 mph 16.1 mph N/A   Overcast
12:55 AM 75.2 °F 70.3 °F 85% 29.93 in 7.0 mi SSE 6.9 mph - N/A   Overcast
1:15 AM 75.2 °F 70.3 °F 85% 29.93 in 7.0 mi SSE 4.6 mph - N/A   Mostly Cloudy
1:35 AM 75.2 °F 70.5 °F 85% 29.93 in 7.0 mi SSE 3.5 mph - N/A Thunderstorm Overcast
1:55 AM 75.4 °F 70.7 °F 85% 29.93 in 7.0 mi ESE 3.5 mph - N/A Thunderstorm Overcast
2:15 AM 75.4 °F 70.7 °F 85% 29.94 in 7.0 mi NW 3.5 mph - N/A Thunderstorm Thunderstorm
2:35 AM 68.7 °F 64.0 °F 85% 29.95 in 10.0 mi NNW 16.1 mph 26.5 mph N/A Rain , Thunderstorm Rain
2:55 AM 67.1 °F 64.8 °F 92% 29.95 in 10.0 mi North 13.8 mph 21.9 mph 0.07 in Rain , Thunderstorm Rain
3:15 AM 66.6 °F 65.3 °F 96% 29.96 in 3.0 mi NNW 11.5 mph 17.3 mph 0.22 in Rain , Thunderstorm Heavy Thunderstorms and Rain
3:35 AM 66.2 °F 65.3 °F 97% 29.96 in 1.2 mi North 16.1 mph 20.7 mph 0.69 in Rain , Thunderstorm Heavy Thunderstorms and Rain
3:55 AM 66.2 °F 65.3 °F 97% 29.97 in 3.0 mi NNE 15.0 mph - 1.14 in Rain , Thunderstorm Heavy Thunderstorms and Rain
4:15 AM 66.0 °F 65.3 °F 98% 29.96 in 2.0 mi North 17.3 mph 26.5 mph 0.30 in Rain , Thunderstorm Heavy Thunderstorms and Rain
4:35 AM 66.0 °F 65.3 °F 98% 29.98 in 5.0 mi North 15.0 mph 20.7 mph 0.39 in Rain , Thunderstorm Heavy Thunderstorms and Rain
4:55 AM 66.2 °F 65.5 °F 98% 29.99 in 5.0 mi NNW 12.7 mph 20.7 mph 0.50 in Rain , Thunderstorm Heavy Thunderstorms and Rain
5:15 AM 66.0 °F 65.5 °F 98% 30.02 in 2.5 mi NNW 11.5 mph 18.4 mph 0.29 in Rain , Thunderstorm Heavy Thunderstorms and Rain
5:35 AM 65.7 °F 65.3 °F 99% 30.03 in 2.0 mi North 11.5 mph - 0.78 in Rain , Thunderstorm Heavy Thunderstorms and Rain
5:55 AM 65.7 °F 65.3 °F 99% 30.04 in 5.0 mi North 11.5 mph - 0.93 in Rain , Thunderstorm Heavy Thunderstorms and Rain
6:15 AM 65.8 °F 65.3 °F 98% 30.04 in 4.0 mi North 9.2 mph - 0.13 in Rain , Thunderstorm Heavy Thunderstorms and Rain
6:35 AM 65.7 °F 65.3 °F 99% 30.05 in 7.0 mi North 10.4 mph - 0.22 in Rain Heavy Rain
6:55 AM 65.7 °F 65.3 °F 99% 30.05 in 10.0 mi North 10.4 mph - 0.28 in Rain Rain
8:15 AM 66.2 °F 65.3 °F 97% 30.01 in 10.0 mi ENE 16.1 mph 21.9 mph N/A Rain Light Rain
8:35 AM 66.2 °F 65.1 °F 96% 30.00 in 10.0 mi ENE 20.7 mph 25.3 mph N/A Rain Light Rain
8:55 AM 66.4 °F 65.3 °F 96% 29.99 in 10.0 mi ENE 17.3 mph 25.3 mph N/A Rain Light Rain
9:15 AM 66.6 °F 64.6 °F 93% 29.97 in 10.0 mi ENE 17.3 mph - N/A   Mostly Cloudy
10:55 AM 69.8 °F 65.1 °F 85% 30.04 in 10.0 mi NNW 4.6 mph - N/A   Scattered Clouds
11:35 AM 71.6 °F 65.1 °F 80% 30.05 in 10.0 mi North 4.6 mph - N/A   Clear
12:15 PM 73.0 °F 63.5 °F 72% 30.06 in 10.0 mi NNW 10.4 mph - N/A   Clear
12:35 PM 73.4 °F 63.5 °F 71% 30.06 in 10.0 mi NNW 8.1 mph - N/A   Scattered Clouds
12:55 PM 73.4 °F 63.5 °F 71% 30.06 in 10.0 mi NW 6.9 mph - N/A   Mostly Cloudy
1:15 PM 72.7 °F 63.5 °F 73% 30.05 in 10.0 mi NNW 6.9 mph - N/A   Overcast
1:35 PM 73.9 °F 63.5 °F 70% 30.04 in 10.0 mi NNW 10.4 mph 21.9 mph N/A   Overcast
1:55 PM 73.8 °F 63.5 °F 70% 30.03 in 10.0 mi NW 10.4 mph 17.3 mph N/A   Mostly Cloudy
2:15 PM 72.7 °F 64.0 °F 74% 30.02 in 10.0 mi NNW 8.1 mph - N/A   Overcast
2:35 PM 71.8 °F 64.2 °F 77% 30.02 in 10.0 mi NNW 10.4 mph 17.3 mph N/A   Mostly Cloudy
2:55 PM 72.1 °F 64.0 °F 76% 30.02 in 10.0 mi NNW 8.1 mph - N/A   Scattered Clouds
3:15 PM 71.8 °F 64.2 °F 77% 30.01 in 10.0 mi NNW 6.9 mph - N/A   Mostly Cloudy
3:35 PM 71.2 °F 63.7 °F 77% 30.01 in 10.0 mi NNW 10.4 mph 16.1 mph N/A   Mostly Cloudy
3:55 PM 71.4 °F 63.3 °F 76% 30.01 in 10.0 mi NNW 11.5 mph - N/A   Mostly Cloudy
4:15 PM 70.2 °F 62.4 °F 76% 30.01 in 10.0 mi NNW 12.7 mph 20.7 mph N/A   Mostly Cloudy
4:35 PM 68.9 °F 61.5 °F 77% 30.01 in 10.0 mi NNW 11.5 mph 23.0 mph N/A   Overcast
4:55 PM 69.3 °F 61.5 °F 76% 30.02 in 10.0 mi NNW 9.2 mph - N/A   Overcast
5:15 PM 70.0 °F 61.3 °F 74% 30.02 in 10.0 mi NNW 10.4 mph - N/A   Overcast
5:35 PM 69.8 °F 61.2 °F 74% 30.02 in 10.0 mi NNW 11.5 mph - N/A   Mostly Cloudy
5:55 PM 68.9 °F 60.8 °F 75% 30.03 in 10.0 mi NNW 12.7 mph 19.6 mph N/A   Overcast
6:15 PM 67.1 °F 60.1 °F 78% 30.03 in 10.0 mi NNW 10.4 mph 16.1 mph N/A   Overcast
6:35 PM 66.6 °F 59.5 °F 78% 30.03 in 10.0 mi NNW 11.5 mph 17.3 mph N/A   Overcast
7:15 PM 66.2 °F 58.8 °F 77% 30.04 in 10.0 mi North 9.2 mph 17.3 mph N/A   Overcast
7:35 PM 66.4 °F 58.6 °F 76% 30.04 in 10.0 mi NNW 12.7 mph - N/A   Overcast
7:55 PM 65.8 °F 58.5 °F 77% 30.04 in 10.0 mi NNW 11.5 mph 18.4 mph N/A   Overcast
8:15 PM 65.5 °F 58.3 °F 77% 30.04 in 10.0 mi NNW 9.2 mph 19.6 mph N/A   Overcast
8:35 PM 65.3 °F 58.1 °F 77% 30.06 in 10.0 mi NNW 12.7 mph 17.3 mph N/A   Overcast
8:55 PM 65.3 °F 57.6 °F 76% 30.07 in 10.0 mi NNW 11.5 mph 18.4 mph N/A   Overcast
9:15 PM 65.3 °F 57.7 °F 76% 30.07 in 10.0 mi NNW 15.0 mph 18.4 mph N/A   Overcast
9:35 PM 64.9 °F 57.6 °F 77% 30.09 in 10.0 mi NNW 12.7 mph 18.4 mph N/A   Overcast
9:55 PM 64.9 °F 57.4 °F 76% 30.09 in 10.0 mi NNW 11.5 mph 17.3 mph N/A   Overcast
10:15 PM 64.8 °F 57.6 °F 77% 30.10 in 10.0 mi NNW 10.4 mph 18.4 mph N/A   Overcast
10:35 PM 64.8 °F 57.4 °F 77% 30.10 in 10.0 mi NNW 12.7 mph 16.1 mph N/A   Overcast
10:55 PM 64.8 °F 57.4 °F 77% 30.11 in 10.0 mi North 11.5 mph 17.3 mph N/A   Overcast
11:15 PM 64.8 °F 57.2 °F 76% 30.12 in 10.0 mi NNW 10.4 mph 17.3 mph N/A   Overcast
11:35 PM 64.8 °F 57.2 °F 76% 30.13 in 10.0 mi North 10.4 mph 18.4 mph N/A   Overcast
11:55 PM 64.6 °F 57.0 °F 76% 30.14 in 10.0 mi NNW 8.1 mph 16.1 mph N/A   Overcast